Wind_Speed
10 9 8 8 7 7 7 7 6 6 7 7 7 7 7 8 8 8 10 9 10 10 10 10 11 11 12 13 12 13 14 15 15 14 13 12 11 10 9 8 7 6 5
9 8 7 7 6 6 6 6 5 6 5 6 6 6 7 7 8 7 8 8 9 10 10 11 11 12 12 13 14 14 15 16 16 16 15 14 13 12 11 10 9 8 7
8 7 6 6 6 5 5 5 4 4 4 4 5 5 6 6 7 7 7 7 9 9 10 11 11 12 13 13 14 15 16 16 17 17 17 16 15 15 14 13 11 10 9
6 6 5 5 4 3 3 3 3 3 3 3 3 4 4 5 5 6 6 6 7 8 9 10 10 10 11 12 14 15 16 16 17 18 18 18 18 17 16 16 14 13 12
5 4 3 2 2 2 2 2 2 2 2 2 3 3 3 4 5 6 6 5 6 7 8 9 9 9 10 10 12 13 15 16 17 17 19 19 20 20 19 18 17 16 15
3 2 1 0 0 1 1 1 1 1 2 2 2 2 3 3 4 5 5 5 6 6 8 8 8 9 9 10 10 11 12 13 16 17 17 19 20 20 21 21 21 20 18
3 2 1 1 1 2 2 2 3 3 3 3 3 3 3 3 4 5 5 6 6 6 7 8 8 9 9 10 10 10 11 12 13 14 16 19 20 21 21 22 23 22 22
3 2 2 2 2 3 3 3 3 3 3 4 4 4 4 4 4 5 6 6 7 7 7 7 8 9 10 10 11 11 11 11 12 13 14 17 19 21 22 24 25 25 24
4 3 2 2 2 2 2 2 3 3 4 4 4 4 4 5 6 6 6 7 7 8 8 8 9 9 10 10 11 11 11 12 13 14 14 15 16 18 21 24 25 26 26
5 4 3 3 2 1 1 1 2 3 4 4 5 5 6 6 7 7 8 8 8 9 9 9 10 10 11 11 12 12 12 13 14 14 15 16 17 17 18 20 23 26 27
6 5 4 3 2 1 1 2 2 3 4 5 6 7 8 8 8 8 8 9 10 10 10 10 11 11 12 12 13 13 14 14 15 15 16 16 17 18 19 19 20 23 26
7 6 5 5 4 4 3 4 4 5 6 7 8 9 9 10 10 10 10 11 11 11 12 12 13 14 13 14 15 15 15 16 17 17 18 18 18 18 19 20 22 22 23
8 8 7 7 6 6 6 7 7 8 8 9 10 10 11 12 12 13 13 13 13 14 14 15 16 16 16 15 17 17 17 18 18 19 20 20 21 21 21 22 22 24 25
9 9 9 8 9 9 9 10 10 11 12 12 13 14 14 15 16 16 16 16 16 16 16 17 18 18 18 18 18 19 19 19 20 20 21 21 22 23 24 24 24 25 26
11 11 11 11 11 11 12 13 14 14 15 16 17 17 18 19 19 20 20 20 20 20 19 19 19 20 21 20 20 21 21 21 22 22 22 23 23 24 25 26 27 27 28
13 13 13 13 14 14 15 16 17 18 19 19 20 21 21 22 22 22 23 23 23 23 23 23 22 22 23 23 23 24 24 23 24 24 24 24 25 25 26 27 28 29 30
15 15 15 16 16 17 18 19 20 21 22 22 23 23 24 24 25 25 25 25 26 26 26 27 26 25 25 26 25 26 26 26 27 27 27 27 27 27 28 29 29 30 31
17 18 18 19 19 20 21 22 23 24 25 25 25 26 26 27 27 28 28 28 29 29 29 30 30 29 28 28 28 29 29 28 28 29 30 30 30 30 29 30 30 31 31
20 21 21 22 22 23 24 25 26 26 27 27 28 28 28 29 30 30 30 31 32 32 32 32 33 33 32 31 31 31 32 31 31 31 31 31 32 32 32 32 32 32 33
23 23 24 24 25 26 27 28 29 29 30 30 30 30 31 32 32 33 33 34 35 35 35 35 35 35 35 35 34 34 34 34 34 34 34 33 34 34 34 34 34 34 35
25 25 26 27 28 28 29 30 31 32 32 32 33 33 33 34 35 36 37 37 38 38 38 38 38 38 38 38 38 37 37 36 36 37 36 36 36 35 35 36 36 36 36
26 27 29 30 30 31 32 33 34 34 35 35 35 36 36 36 37 38 39 40 41 41 40 40 40 40 40 41 41 40 40 39 38 39 39 38 38 37 37 37 37 37 38
30 30 31 32 32 33 35 35 36 37 37 38 37 38 38 39 40 40 41 42 43 44 45 44 44 42 43 44 45 44 43 42 41 41 42 40 40 39 39 39 39 39 39
33 33 34 34 34 35 36 36 38 39 40 40 40 41 42 42 43 44 45 45 45 45 46 48 48 46 46 47 48 48 47 46 45 44 45 44 43 42 42 41 41 41 40
36 36 36 37 38 38 39 39 40 41 42 43 44 44 45 46 46 47 48 49 49 49 49 50 50 50 50 50 50 51 50 49 48 46 46 47 46 46 45 43 43 43 42
39 39 40 41 41 42 42 42 42 43 44 45 46 46 48 49 50 51 51 52 52 52 54 54 54 53 53 52 53 53 53 53 52 50 48 50 49 48 47 45 45 45 44
Wind_Direction
283 285 284 280 274 271 271 270 267 265 268 267 259 255 255 254 256 256 252 248 248 249 249 254 253 250 246 243 242 238 235 233 230 229 229 229 229 229 229 228 227 226 224
281 282 283 281 276 274 276 277 275 275 274 269 265 262 263 263 263 263 258 254 249 251 254 258 258 255 251 250 247 243 241 237 234 232 233 233 233 232 232 232 231 230 229
279 278 278 281 281 278 275 273 272 275 278 272 270 273 274 273 275 273 268 264 261 259 259 260 260 259 256 254 250 246 245 243 240 236 234 235 236 235 234 234 234 233 232
274 271 274 277 276 274 272 274 279 283 284 279 271 279 281 278 280 282 279 273 272 266 264 262 263 263 262 261 257 252 247 246 244 241 237 236 237 238 237 236 235 234 233
269 266 270 270 277 285 284 288 296 293 290 288 292 294 292 287 286 289 290 288 282 278 277 272 268 266 269 270 272 263 254 249 247 246 242 239 239 239 239 238 237 236 236
256 257 247 257 8 5 352 352 0 355 338 325 324 320 316 312 308 307 307 304 297 291 287 284 279 277 279 279 283 279 265 258 251 248 245 242 240 241 242 241 240 239 239
226 209 163 110 85 73 61 51 48 40 28 15 5 355 342 333 324 321 318 314 310 303 295 293 292 285 282 282 282 286 282 269 261 256 253 249 245 244 244 243 243 242 241
198 183 160 129 99 82 68 58 49 39 32 26 19 14 2 352 346 335 328 323 318 312 310 304 299 296 292 289 285 285 284 280 272 266 262 257 253 251 249 246 245 245 243
190 184 174 157 126 93 67 51 41 37 32 25 18 12 3 355 349 343 337 328 322 317 313 309 304 300 297 296 294 290 285 280 277 275 273 267 261 259 255 249 248 246 245
192 191 186 178 164 129 55 26 17 12 8 3 359 354 349 346 342 338 335 329 323 317 312 308 304 302 299 298 296 292 287 285 282 279 276 271 269 264 261 255 251 249 248
198 202 208 210 217 241 287 319 335 338 339 337 335 334 332 333 333 331 329 327 324 319 314 311 308 304 300 298 295 291 287 285 283 280 279 276 273 269 266 263 259 254 251
210 217 226 231 240 253 272 290 301 308 314 316 319 320 321 322 323 322 319 319 316 314 312 310 308 305 302 299 294 291 288 284 282 279 277 276 275 271 268 266 262 259 258
222 230 237 242 250 260 272 284 291 297 302 304 306 308 309 310 310 310 311 310 309 309 308 307 305 304 302 298 294 292 289 285 282 280 278 276 274 273 271 269 266 262 260
231 238 243 251 258 266 273 280 286 290 294 296 297 299 299 300 301 303 304 303 303 303 303 302 302 301 300 298 295 294 291 287 284 282 280 277 275 273 272 270 267 265 263
239 244 249 256 263 269 274 280 284 287 290 291 293 294 295 296 296 297 297 298 297 297 297 297 297 297 296 296 295 293 291 288 286 283 281 278 276 274 273 271 269 267 265
247 251 256 261 267 272 277 281 284 287 288 289 290 291 292 293 293 293 293 293 294 294 295 295 293 292 292 292 291 290 289 287 286 284 282 280 278 276 274 272 270 268 267
255 259 264 268 272 276 279 282 285 286 287 289 290 291 291 291 291 291 291 291 291 291 292 293 293 291 290 290 290 288 286 285 285 284 283 282 280 278 276 273 272 270 268
261 264 268 272 276 279 281 282 284 286 287 288 289 290 290 290 289 289 289 289 289 289 289 289 290 289 288 287 288 288 286 283 282 281 281 281 281 279 278 276 274 272 270
264 267 270 273 275 278 280 281 283 284 285 286 287 288 288 288 288 288 287 288 288 288 287 287 287 287 287 286 286 285 285 283 281 279 278 278 279 279 278 276 275 273 271
266 269 271 274 276 278 280 281 282 283 284 284 285 286 287 287 286 286 286 286 287 287 286 285 285 285 285 285 285 284 284 283 282 280 278 277 277 277 277 276 275 274 273
270 272 274 276 278 279 280 281 282 283 284 285 285 285 285 285 285 285 285 285 285 286 286 285 284 283 283 283 283 283 282 281 281 280 279 278 276 276 276 275 275 274 273
273 275 277 279 279 280 280 281 282 283 284 284 284 284 284 285 286 286 285 285 285 285 284 284 283 282 282 282 282 282 282 281 280 280 279 278 277 276 274 273 273 273 273
276 277 278 279 280 281 281 282 283 284 284 284 284 284 285 285 285 284 283 283 284 285 284 284 283 283 282 281 281 281 281 281 281 280 279 278 277 276 275 274 273 272 272
277 278 280 280 280 281 282 285 285 285 285 286 285 285 285 285 285 284 284 283 283 283 283 283 283 282 282 281 281 281 281 280 279 280 279 278 277 277 275 275 274 273 272
279 280 281 281 282 282 283 284 285 286 287 287 286 285 286 285 285 284 284 284 284 284 282 281 281 281 280 281 281 281 280 279 279 278 277 277 277 276 276 276 275 274 272
281 282 281 281 282 283 285 286 287 287 287 287 287 287 286 286 286 285 285 284 284 283 282 281 281 280 280 279 279 279 279 279 278 277 276 276 275 275 275 274 274 274 273
Height
5886 5886 5886 5885 5886 5886 5886 5886 5886 5886 5886 5886 5887 5887 5887 5888 5889 5888 5889 5891 5892 5892 5894 5895 5896 5897 5898 5900 5901 5902 5904 5906 5907 5909 5910 5912 5913 5915 5916 5917 5918 5919 5920
5885 5885 5884 5884 5884 5884 5884 5884 5885 5885 5885 5885 5885 5886 5886 5886 5886 5887 5888 5889 5890 5890 5891 5893 5894 5895 5896 5897 5899 5900 5902 5903 5905 5906 5908 5910 5911 5913 5914 5916 5917 5918 5919
5883 5883 5883 5883 5883 5883 5883 5883 5884 5884 5884 5884 5884 5885 5885 5885 5885 5886 5887 5887 5888 5888 5889 5891 5892 5893 5894 5895 5896 5898 5899 5901 5902 5904 5905 5907 5909 5911 5912 5914 5915 5916 5918
5882 5882 5882 5882 5882 5882 5882 5883 5883 5883 5883 5883 5883 5884 5884 5884 5884 5885 5885 5886 5886 5886 5887 5888 5889 5891 5892 5893 5894 5895 5896 5897 5899 5901 5902 5904 5906 5908 5910 5911 5913 5914 5916
5881 5881 5881 5881 5881 5882 5882 5882 5882 5882 5882 5882 5883 5883 5883 5883 5884 5884 5884 5885 5885 5885 5886 5886 5888 5889 5889 5890 5891 5892 5893 5894 5895 5897 5899 5900 5902 5904 5906 5908 5910 5911 5913
5880 5880 5881 5881 5881 5881 5882 5882 5882 5882 5882 5882 5882 5883 5883 5883 5883 5883 5883 5884 5884 5884 5884 5885 5886 5887 5887 5888 5888 5889 5890 5891 5892 5893 5895 5896 5898 5901 5902 5905 5906 5908 5910
5879 5880 5880 5881 5881 5881 5881 5881 5882 5882 5882 5882 5882 5882 5882 5882 5882 5882 5883 5883 5883 5883 5883 5884 5884 5885 5885 5886 5886 5887 5887 5888 5889 5890 5892 5893 5895 5897 5898 5900 5902 5904 5906
5879 5879 5880 5881 5881 5881 5881 5882 5882 5882 5882 5882 5882 5882 5882 5883 5882 5882 5882 5882 5882 5882 5882 5882 5882 5883 5883 5884 5884 5884 5885 5885 5886 5887 5888 5889 5891 5892 5894 5895 5897 5899 5901
5878 5879 5880 5880 5881 5881 5882 5882 5882 5882 5882 5882 5882 5882 5882 5882 5881 5881 5881 5881 5880 5880 5880 5880 5881 5881 5881 5881 5881 5882 5882 5883 5883 5884 5885 5886 5887 5888 5889 5891 5892 5894 5896
5878 5879 5879 5880 5881 5881 5881 5882 5882 5882 5882 5882 5882 5881 5881 5881 5881 5880 5880 5879 5879 5879 5879 5879 5879 5878 5878 5879 5879 5879 5879 5879 5880 5881 5881 5882 5883 5884 5884 5886 5887 5889 5891
5877 5878 5879 5880 5880 5881 5881 5881 5881 5881 5881 5881 5881 5881 5880 5880 5879 5879 5879 5878 5878 5877 5877 5876 5876 5876 5876 5876 5876 5876 5876 5876 5877 5877 5877 5878 5879 5880 5880 5881 5882 5883 5885
5876 5877 5878 5879 5879 5880 5880 5880 5880 5880 5880 5880 5880 5879 5879 5878 5878 5877 5877 5876 5876 5875 5874 5874 5873 5873 5873 5873 5872 5872 5872 5872 5873 5873 5873 5874 5874 5875 5876 5876 5877 5878 5880
5874 5876 5876 5877 5878 5878 5879 5879 5879 5879 5879 5878 5878 5878 5877 5877 5876 5875 5875 5874 5873 5873 5872 5871 5870 5869 5869 5869 5868 5868 5868 5868 5868 5868 5868 5869 5869 5870 5870 5871 5872 5873 5874
5873 5874 5875 5875 5876 5876 5877 5877 5877 5877 5876 5876 5876 5875 5875 5874 5873 5872 5872 5871 5870 5870 5869 5868 5867 5866 5865 5865 5864 5863 5863 5863 5863 5863 5863 5863 5863 5864 5864 5865 5866 5867 5868
5870 5871 5872 5873 5873 5874 5874 5874 5874 5874 5873 5873 5872 5872 5871 5871 5870 5869 5868 5867 5866 5865 5865 5864 5863 5862 5860 5860 5859 5858 5858 5858 5857 5857 5857 5857 5857 5857 5858 5858 5859 5860 5861
5868 5868 5869 5870 5870 5870 5871 5871 5870 5870 5870 5869 5868 5868 5867 5866 5865 5864 5863 5862 5861 5860 5859 5859 5858 5857 5856 5855 5854 5853 5852 5852 5851 5851 5850 5850 5850 5850 5851 5851 5852 5852 5853
5864 5865 5866 5866 5866 5866 5866 5866 5865 5865 5865 5864 5863 5862 5861 5861 5860 5859 5858 5857 5856 5855 5854 5852 5852 5851 5850 5849 5848 5847 5846 5846 5845 5844 5843 5843 5843 5843 5843 5843 5844 5844 5844
5860 5861 5861 5862 5862 5861 5861 5861 5860 5859 5859 5858 5857 5856 5855 5854 5853 5852 5851 5850 5849 5848 5847 5846 5845 5844 5844 5842 5841 5840 5839 5839 5838 5837 5836 5836 5835 5835 5835 5835 5835 5835 5836
5855 5855 5856 5856 5856 5855 5855 5854 5853 5853 5852 5852 5851 5850 5849 5847 5846 5845 5844 5842 5841 5840 5839 5838 5837 5836 5835 5834 5834 5833 5831 5831 5830 5829 5829 5828 5827 5827 5827 5826 5826 5826 5827
5849 5849 5849 5849 5849 5849 5848 5847 5846 5846 5845 5844 5843 5842 5841 5840 5839 5837 5836 5834 5833 5832 5830 5830 5829 5827 5826 5825 5825 5824 5823 5822 5821 5820 5820 5820 5819 5818 5817 5817 5817 5817 5817
5842 5842 5842 5842 5842 5841 5840 5839 5838 5838 5837 5836 5835 5834 5832 5831 5830 5828 5827 5825 5824 5822 5821 5820 5819 5818 5817 5815 5814 5814 5813 5812 5812 5810 5810 5809 5809 5809 5808 5807 5806 5806 5806
5835 5835 5835 5834 5833 5832 5831 5830 5829 5828 5828 5827 5826 5825 5823 5822 5820 5818 5816 5815 5813 5812 5811 5810 5808 5808 5806 5804 5803 5802 5801 5801 5801 5800 5799 5799 5798 5798 5797 5797 5796 5796 5795
5827 5826 5826 5825 5824 5823 5821 5820 5819 5818 5817 5817 5816 5814 5813 5811 5809 5808 5806 5804 5802 5800 5799 5798 5797 5796 5794 5792 5790 5790 5789 5788 5788 5787 5786 5787 5786 5786 5785 5785 5784 5785 5784
5818 5817 5816 5815 5814 5813 5811 5810 5809 5807 5806 5805 5804 5803 5801 5800 5797 5795 5793 5792 5791 5789 5787 5784 5783 5782 5781 5779 5777 5776 5775 5775 5775 5775 5772 5773 5773 5773 5772 5772 5772 5772 5772
5809 5807 5806 5805 5803 5802 5800 5799 5797 5796 5794 5793 5792 5790 5788 5786 5784 5782 5780 5778 5776 5775 5773 5771 5769 5768 5766 5765 5763 5761 5761 5760 5761 5761 5759 5758 5759 5758 5758 5759 5758 5758 5758
5798 5797 5795 5793 5792 5790 5789 5787 5786 5783 5782 5780 5778 5776 5773 5771 5769 5767 5765 5763 5761 5759 5757 5755 5753 5752 5751 5750 5748 5746 5745 5744 5744 5745 5745 5743 5743 5743 5744 5744 5744 5743 5744